Change the Weather History Date:

Tuesday, January 8, 2013

  Actual Average Record
Temperature  
Mean Temperature 47 °F -  
Max Temperature 53 °F - 55 °F (2002)
Min Temperature 41 °F - 26 °F (2003)
Degree Days  
Heating Degree Days 18    
Month to date heating degree days 222  
Since 1 July heating degree days 2062  
Cooling Degree Days 0    
Month to date cooling degree days 0  
Year to date cooling degree days 0  
Moisture  
Dew Point 45 °F    
Average Humidity 89    
Maximum Humidity 100    
Minimum Humidity 77    
Precipitation  
Precipitation 0.12 in - 0.67 in (2008)
Month to date precipitation 0.51  
Year to date precipitation 0.51  
Sea Level Pressure  
Sea Level Pressure 30.06 in    
Wind  
Wind Speed 6 mph (SSE)    
Max Wind Speed 14 mph    
Max Gust Speed 18 mph    
Visibility 6 miles    
Events Rain    
T = Trace of Precipitation, MM = Missing Value Source: NWS Daily Summary

Daily Weather History Graph

Daily Weather History Graph

Search for Another Location

Airport or City:

Trip Planner

Search our weather history database for the weather conditions in past years. The results will help you decide how hot, cold, wet, or windy it might be!

Date:

Astronomy

Jan. 08, 2013 Rise Set
Actual Time 7:51 AM PST 4:45 PM PST
Civil Twilight 7:17 AM PST 5:19 PM PST
Nautical Twilight 6:40 AM PST 5:56 PM PST
Astronomical Twilight 6:04 AM PST 6:32 PM PST
Moon 4:30 AM PST (1/8) 1:53 PM PST (1/8)
Length of Visible Light 10h 01m
Length of Day
8h 53m
Waning Crescent, 13% of the Moon is Illuminated
Jan 8
Waning Crescent
Jan 11
New
Jan 18
First Quarter
Jan 26
Full
Feb 3
Last Quarter

Hourly Weather History & Observations

Time (PST) Temp. Windchill Dew Point Humidity Pressure Visibility Wind Dir Wind Speed Gust Speed Precip Events Conditions
12:53 AM 42.1 °F 40.2 °F 41.0 °F 96% 30.19 in 10.0 mi North 3.5 mph - N/A   Overcast
1:31 AM 42.8 °F - 41.0 °F 93% 30.20 in 4.0 mi Calm Calm - N/A   Overcast
1:53 AM 42.1 °F 40.2 °F 41.0 °F 96% 30.20 in 3.0 mi WNW 3.5 mph - N/A   Overcast
2:53 AM 41.0 °F - 39.9 °F 96% 30.18 in 2.5 mi Calm Calm - N/A   Overcast
3:01 AM 41.0 °F - 39.2 °F 93% 30.17 in 1.0 mi Calm Calm - N/A   Overcast
3:08 AM 41.0 °F - 39.2 °F 93% 30.17 in 0.8 mi Calm Calm - N/A   Overcast
3:33 AM 42.8 °F - 41.0 °F 93% 30.17 in 2.0 mi Calm Calm - 0.00 in Rain Light Rain
3:41 AM 42.8 °F - 41.0 °F 93% 30.16 in 4.0 mi Calm Calm - 0.00 in Rain Light Rain
3:53 AM 42.1 °F 40.2 °F 41.0 °F 96% 30.16 in 2.5 mi North 3.5 mph - 0.01 in Rain Light Rain
4:08 AM 42.8 °F - 41.0 °F 93% 30.15 in 4.0 mi Calm Calm - 0.00 in   Overcast
4:31 AM 42.8 °F - 41.0 °F 93% 30.14 in 1.8 mi Calm Calm - 0.00 in Rain Light Rain
4:53 AM 42.1 °F - 42.1 °F 100% 30.13 in 1.2 mi Calm Calm - 0.01 in Rain Light Rain
5:05 AM 42.8 °F - 41.0 °F 93% 30.12 in 1.0 mi Calm Calm - 0.00 in Rain Light Rain
5:27 AM 42.8 °F - 41.0 °F 93% 30.11 in 2.5 mi Calm Calm - 0.01 in Rain Light Rain
5:42 AM 42.8 °F - 42.8 °F 100% 30.10 in 3.0 mi Calm Calm - 0.01 in Rain Light Rain
6:08 AM 42.8 °F - 42.8 °F 100% 30.09 in 3.0 mi Calm Calm - 0.00 in Rain Light Rain
6:18 AM 42.8 °F - 41.0 °F 93% 30.09 in 2.5 mi Calm Calm - 0.01 in Rain Light Rain
6:46 AM 42.8 °F - 42.8 °F 100% 30.09 in 3.0 mi Calm Calm - 0.02 in Rain Light Rain
6:53 AM 43.0 °F 41.3 °F 42.1 °F 97% 30.08 in 4.0 mi North 3.5 mph - 0.02 in   Overcast
7:53 AM 43.0 °F - 42.1 °F 97% 30.07 in 4.0 mi Calm Calm - 0.00 in   Overcast
8:08 AM 42.8 °F - 42.8 °F 100% 30.07 in 4.0 mi Calm Calm - N/A   Overcast
8:53 AM 46.9 °F - 46.0 °F 97% 30.08 in 5.0 mi SSW 3.5 mph - 0.01 in Rain Light Rain
9:53 AM 48.9 °F - 46.9 °F 93% 30.07 in 7.0 mi South 6.9 mph - 0.00 in   Overcast
10:53 AM 50.0 °F - 48.0 °F 93% 30.07 in 10.0 mi South 6.9 mph 17.3 mph N/A   Overcast
11:53 AM 51.1 °F - 48.0 °F 89% 30.06 in 8.0 mi SSE 10.4 mph - 0.02 in Rain Light Rain
12:49 PM 51.8 °F - 48.2 °F 88% 30.04 in 7.0 mi SSE 8.1 mph - 0.00 in Rain Light Rain
12:53 PM 51.1 °F - 48.9 °F 92% 30.04 in 8.0 mi SSE 8.1 mph - 0.00 in Rain Light Rain
1:39 PM 51.8 °F - 48.2 °F 88% 30.03 in 10.0 mi SSE 9.2 mph 16.1 mph 0.01 in Rain Light Rain
1:53 PM 52.0 °F - 48.9 °F 89% 30.03 in 9.0 mi SSE 8.1 mph - 0.01 in   Overcast
2:53 PM 53.1 °F - 48.9 °F 86% 30.01 in 10.0 mi South 10.4 mph - 0.00 in   Overcast
3:53 PM 51.1 °F - 48.9 °F 92% 30.01 in 5.0 mi SSE 6.9 mph - N/A   Overcast
4:00 PM 51.8 °F - 48.2 °F 88% 30.01 in 4.0 mi South 5.8 mph - 0.00 in Rain Light Rain
4:53 PM 51.1 °F - 48.9 °F 92% 30.00 in 9.0 mi SSE 6.9 mph - 0.01 in   Overcast
5:53 PM 50.0 °F - 48.0 °F 93% 29.99 in 10.0 mi SE 8.1 mph - 0.00 in   Overcast
6:39 PM 50.0 °F - 48.2 °F 94% 29.97 in 8.0 mi SSE 8.1 mph - 0.00 in Rain Light Rain
6:53 PM 50.0 °F - 48.0 °F 93% 29.96 in 7.0 mi SSE 6.9 mph - 0.00 in Rain Light Rain
7:00 PM 50.0 °F - 48.2 °F 94% 29.96 in 6.0 mi SSE 9.2 mph - 0.01 in Rain Light Rain
7:16 PM 50.0 °F - 48.2 °F 94% 29.96 in 9.0 mi SSE 6.9 mph - 0.01 in Rain Light Rain
7:53 PM 51.1 °F - 48.0 °F 89% 29.95 in 10.0 mi SSE 11.5 mph - 0.01 in   Overcast
8:13 PM 51.8 °F - 46.4 °F 82% 29.94 in 10.0 mi SSE 8.1 mph - N/A   Overcast
9:02 PM 51.8 °F - 46.4 °F 82% 29.94 in 10.0 mi SSE 11.5 mph 17.3 mph N/A   Overcast
9:53 PM 51.1 °F - 45.0 °F 80% 29.92 in 10.0 mi SSE 8.1 mph - N/A   Partly Cloudy
10:53 PM 48.9 °F - 44.1 °F 83% 29.90 in 10.0 mi SSE 5.8 mph - N/A   Clear
11:53 PM 48.9 °F - 43.0 °F 80% 29.89 in 10.0 mi South 5.8 mph - N/A   Scattered Clouds